COSMOS 2251 DEB, 35020

Orbit data source: Space-Track

COSMOS 2251 DEB, 35020 is space debris in LEO originally from a launch on Wed, 16 Jun 1993 UTC launched from the Plesetsk Missile And Space Complex (PKMTR). The debris from Iridium 33, an American commercial communications satellite, has been tracked extensively since its accidental collision with the defunct Russian satellite Cosmos 2251 in 2009. This event, occurring at high speed in low Earth orbit (LEO), generated thousands of pieces of space debris, significantly increasing the risk of further collisions. The Iridium 33 debris cloud has impacted space traffic management and orbital debris mitigation strategies, making it a subject of ongoing study in space situational awareness.

Loading next visibility...
Identifier
35020, 1993-036AGH
Orbit
LEO
Country
Flag of CISCIS
Related business
Manufacturer
Unknown
Mission
Spacecraft
Bus & Motor
Unknown
Mass
Unknown
Launch date (UTC)
1993-06-16 (33 years ago)
Launch vehicle
Unknown
Launch site
Plesetsk Missile And Space Complex (PKMTR)
Object type
Payload
Rocket body
Debris
Shape & HBR
Unknown shape, 0.1 m
Radar Cross Section
Small (<0.1 m²)

Expand to show TLE details & history
Last TLE update: 1 day ago

TLE from 1 day ago
0 COSMOS 2251 DEB
1 35020U 93036AGH 26207.47568387  .00000403  00000-0  80167-4 0  9999
2 35020  74.0469 126.3658 0090012 183.6855 176.3662 14.63109585915391
Epoch: 2026-07-26T11:24Z
TLE epoch observation values (Epoch: 2026-07-26T11:24:59.086Z)
Latitude
-0°
Longitude
10.94653°
Altitude
749.241 km
Speed
7.447 km/s
True Right ascension
08h 25m 27s
True Declination
0° 00' 00"
Sunlit
Object was in daylight at epoch
Visualization orbit readout
Latitude
Unknown
Longitude
Unknown
Altitude
Unknown
Speed
Unknown
Apparent Right ascension
Unknown
Apparent Declination
Unknown
Sunlit
N/A
Visualization observer readout
Local Sidereal Time
02:23:53
Azimuth
Unknown
Elevation
Unknown
Doppler factor
Unknown
Orbital elements
Apogee altitude
744.282 km
Perigee altitude
617.206 km
Semi-major axis
7,058.881 km
Eccentricity
0.009
Inclination
74.0469°
RAAN
126.3658°
Arg. of periapsis
183.6855°
True anomaly
176.43085°
Mean anomaly
176.3662°
Eccentric anomaly
176.3986°
Mean motion
3.65965 °/min
Orbital period
98.37 mins
BSTAR
0.000080167
Loading maneuver chart data...
Computing Atmospheric mass density...

Documentation

Showing up to 5 results
|